Total_Precipitation_Accumulation
1.70 1.70 1.66 1.55 1.47 1.39 1.37 1.51 1.75 1.70 1.36 1.09 1.06 1.10 1.16 1.20 1.29 1.17 1.01 1.19 1.24 1.23 1.28 1.33 1.34 1.34 1.34 1.40 1.53 1.69 1.80 1.86 1.96 2.10 2.22 2.32 2.50 2.84
1.45 1.48 1.50 1.49 1.51 1.51 1.52 1.55 1.68 1.85 1.70 1.26 1.11 1.11 1.17 1.18 1.28 1.13 1.03 1.21 1.15 1.13 1.14 1.16 1.13 1.11 1.13 1.17 1.26 1.39 1.51 1.60 1.68 1.83 2.03 2.21 2.38 2.53
1.42 1.35 1.29 1.32 1.43 1.48 1.55 1.60 1.65 1.76 1.77 1.40 1.15 1.08 1.11 1.08 1.05 0.97 0.94 0.94 0.92 1.04 1.00 0.98 1.00 1.01 1.00 1.03 1.09 1.18 1.28 1.40 1.54 1.67 1.83 2.00 2.15 2.26
1.48 1.46 1.40 1.36 1.43 1.49 1.57 1.61 1.58 1.56 1.58 1.43 1.17 1.04 0.98 0.91 0.88 0.84 0.81 0.80 0.79 0.94 0.93 0.90 0.92 0.92 0.89 0.90 0.96 1.03 1.10 1.20 1.31 1.42 1.54 1.64 1.78 1.96
1.49 1.52 1.50 1.52 1.52 1.47 1.44 1.43 1.39 1.34 1.30 1.25 1.11 0.99 0.94 0.89 0.88 0.82 0.74 0.72 0.70 0.79 0.82 0.82 0.88 0.92 0.88 0.88 0.93 0.96 0.95 0.94 0.98 1.04 1.17 1.31 1.45 1.61
1.53 1.54 1.52 1.53 1.48 1.44 1.40 1.32 1.27 1.26 1.24 1.22 1.15 1.04 0.96 0.89 0.90 0.86 0.79 0.71 0.67 0.64 0.73 0.74 0.82 0.91 0.91 0.84 0.79 0.77 0.76 0.80 0.87 0.94 1.02 1.11 1.19 1.29
1.60 1.53 1.47 1.53 1.51 1.43 1.35 1.31 1.31 1.36 1.36 1.36 1.27 1.12 0.95 0.85 0.80 0.75 0.77 0.75 0.72 0.66 0.68 0.68 0.69 0.68 0.71 0.78 0.81 0.80 0.81 0.85 0.92 1.01 1.07 1.13 1.19 1.26
1.53 1.45 1.39 1.43 1.39 1.42 1.41 1.37 1.41 1.47 1.54 1.52 1.36 1.12 0.86 0.73 0.72 0.81 0.91 0.99 0.90 0.65 0.67 0.66 0.63 0.66 0.63 0.66 0.81 0.86 0.87 0.88 0.89 0.95 1.00 1.03 1.08 1.15
1.34 1.26 1.19 1.15 1.18 1.05 1.16 1.27 1.28 1.37 1.39 1.32 1.19 0.95 0.82 0.77 0.90 1.04 1.00 0.98 0.82 0.65 0.76 0.82 0.72 0.69 0.64 0.70 0.84 0.81 0.82 0.84 0.86 0.91 0.92 0.93 0.97 1.03
1.09 1.05 1.02 0.97 0.97 1.01 1.01 1.08 1.02 0.98 0.95 0.89 0.86 0.83 0.83 0.88 1.03 1.18 1.16 1.10 0.89 0.75 0.80 0.91 0.77 0.71 0.66 0.69 0.81 0.80 0.84 0.88 0.90 0.94 0.95 0.96 0.98 1.00
0.90 0.90 0.91 0.86 1.01 1.18 1.14 1.08 0.94 0.85 0.88 0.91 0.95 0.97 1.03 1.04 1.06 1.18 1.29 1.38 1.21 0.89 0.78 0.82 0.74 0.69 0.68 0.67 0.73 0.83 0.81 0.81 0.82 0.83 0.86 0.92 0.96 1.04
0.83 0.83 0.95 0.94 1.09 1.22 1.12 1.09 0.98 0.82 0.84 0.87 0.85 0.82 0.80 0.86 1.00 1.02 1.24 1.60 1.44 1.12 0.77 0.88 0.89 0.95 1.12 0.77 0.68 0.70 0.72 0.77 0.82 0.84 0.85 0.86 0.92 0.96
0.78 0.77 0.79 0.99 1.10 1.17 1.11 0.97 1.00 1.04 0.97 0.95 0.92 0.86 0.82 0.83 0.86 0.86 1.01 1.51 1.79 1.41 0.85 1.24 1.44 1.15 1.29 0.97 0.71 0.68 0.69 0.77 0.85 0.88 0.95 1.00 1.05 1.14
0.78 0.69 0.73 0.94 1.01 1.04 0.99 1.00 1.11 1.07 0.93 0.98 1.01 0.95 0.89 0.87 0.87 0.89 0.93 1.04 1.26 1.36 1.07 1.45 1.93 1.52 1.60 1.30 0.84 0.69 0.69 0.80 0.99 1.06 1.07 1.22 1.31 1.37
0.84 0.83 0.83 0.86 0.84 0.86 0.93 0.97 0.96 0.88 0.90 0.98 0.97 0.88 0.80 0.80 0.83 0.89 0.93 0.93 0.94 0.96 1.02 1.17 1.51 1.53 1.69 1.59 1.11 0.80 0.80 0.83 0.97 1.15 1.25 1.35 1.42 1.47
0.99 0.98 0.93 0.87 0.84 0.83 0.85 0.83 0.80 0.83 0.91 0.96 0.91 0.85 0.82 0.83 0.86 0.89 1.00 1.03 1.08 0.96 0.87 0.90 1.03 1.35 1.51 1.22 1.22 1.09 0.98 1.06 1.04 1.18 1.36 1.44 1.53 1.65
1.11 1.03 0.97 0.91 0.89 0.86 0.83 0.80 0.81 0.87 0.92 0.88 0.93 0.95 0.92 0.89 0.87 0.88 1.00 1.10 1.19 1.02 0.88 0.81 0.82 0.92 1.10 1.20 1.24 1.04 1.00 1.10 1.21 1.35 1.53 1.54 1.51 1.69
1.14 1.03 0.92 0.84 0.80 0.79 0.80 0.79 0.78 0.82 0.86 0.94 1.00 1.02 1.04 1.03 0.99 0.93 1.00 1.11 1.10 0.95 0.90 0.88 0.92 1.06 1.08 1.03 1.03 1.07 1.07 1.16 1.22 1.29 1.48 1.66 1.59 1.52
1.01 0.91 0.85 0.82 0.78 0.76 0.78 0.81 0.79 0.76 0.84 0.96 1.02 1.04 1.07 1.06 1.05 1.05 1.04 1.07 1.02 0.92 0.89 0.92 1.08 1.45 1.51 1.05 0.78 0.94 1.27 1.37 1.28 1.31 1.41 1.61 1.77 1.59
0.84 0.79 0.77 0.79 0.85 0.87 0.88 0.92 0.92 0.88 0.90 0.94 0.98 0.99 1.04 1.12 1.10 1.04 1.03 1.08 1.09 0.99 0.90 0.84 0.94 1.38 1.84 1.56 1.24 1.03 1.10 1.39 1.61 1.70 1.54 1.42 1.52 1.48
0.75 0.74 0.75 0.80 0.88 0.97 1.00 1.02 1.04 1.05 1.02 1.03 1.01 1.00 1.05 1.17 1.11 0.97 0.98 1.04 1.12 1.07 0.98 0.80 0.72 0.93 1.35 1.63 1.44 1.03 1.04 1.13 1.44 1.94 1.93 1.76 1.56 1.35
0.77 0.78 0.81 0.86 0.94 1.03 1.07 1.08 1.08 1.04 1.05 1.07 1.03 1.02 1.05 1.15 1.16 1.06 1.05 1.09 1.05 1.00 0.93 0.79 0.75 0.88 1.20 1.53 1.30 0.94 0.91 0.93 0.99 1.11 1.57 2.17 2.70 2.65
0.85 0.88 0.89 0.94 0.98 1.02 1.05 1.04 1.03 0.98 0.98 1.07 1.10 1.07 1.09 1.13 1.08 1.10 1.10 1.10 1.10 1.03 0.98 0.96 0.90 0.92 0.98 1.08 1.15 1.00 0.86 0.84 0.86 0.93 1.21 1.46 1.74 1.97